Tracking 18840 objects as of 18-November-2017
HD Live streaming from Space Station
objects crossing your sky now

FENGYUN 1C DEB

Track FENGYUN 1C DEB now!
10-day predictions


NORAD ID: 30196
Int'l Code: 1999-025VD
Perigee: 753.1 km
Apogee: 878.0 km
Inclination: 98.7 °
Period: 101.1 minutes
Semi major axis: 7186 km
RCS: 0.05 m2 (small)
Launch date: May 10, 1999
Source: People's Republic of China (PRC)
Launch site: Taiyaun Space Center, China (TSC)

Note: This is SATELLITE DEBRIS
aabbcc
Your satellite tracking list
Your tracking list is empty




NASA's NSSDC Master Catalog

Two Line Element Set (TLE):
1 30196U 99025VD  17321.90740679 +.00000013 +00000-0 +23743-4 0  9997
2 30196 098.7041 048.7364 0086897 358.1660 065.1670 14.25015570563895
Source of the keplerian elements: AFSPC